timestamp,surface_pressure_avg,surface_temp_avg,battery_voltage,lat,long
2020-05-30 00:09:01+00:00,223.5314,6.8,13.13,47.84626,-54.09684
2020-05-30 00:19:01+00:00,224.6548,6.8,12.81,47.84626,-54.09684
2020-05-30 00:29:01+00:00,227.9598,6.8,12.81,47.84626,-54.09684
2020-05-30 00:39:01+00:00,230.9081,6.82,12.81,47.84626,-54.09684
2020-05-30 00:49:01+00:00,231.6498,6.87,12.81,47.84626,-54.09684
2020-05-30 00:59:01+00:00,230.8631,6.89,12.81,47.84626,-54.09684
2020-05-30 01:09:01+00:00,233.9465,6.9,12.81,47.84626,-54.09684
2020-05-30 01:19:01+00:00,239.1614,6.9,12.73,47.84626,-54.09684
2020-05-30 01:29:01+00:00,244.7814,6.9,12.73,47.84626,-54.09684
2020-05-30 01:39:01+00:00,248.7265,6.9,12.73,47.84626,-54.09684
2020-05-30 01:49:01+00:00,254.9814,6.94,12.73,47.84626,-54.09684
2020-05-30 01:59:01+00:00,261.5747,6.97,12.73,47.84626,-54.09684
2020-05-30 02:09:01+00:00,268.1331,7.0,12.73,47.84626,-54.09684
2020-05-30 02:19:01+00:00,272.1981,7.0,12.65,47.84626,-54.09684
2020-05-30 02:29:01+00:00,279.4414,7.0,12.65,47.84626,-54.09684
2020-05-30 02:39:01+00:00,284.508,7.07,12.65,47.84626,-54.09684
2020-05-30 02:49:01+00:00,291.7447,7.08,12.65,47.84626,-54.09684
2020-05-30 02:59:01+00:00,298.2164,7.04,12.65,47.84626,-54.09684
2020-05-30 03:09:01+00:00,303.993,7.04,12.65,47.84626,-54.09684
2020-05-30 03:19:01+00:00,306.1946,7.05,12.65,47.84626,-54.09684
2020-05-30 03:29:01+00:00,310.128,7.04,12.65,47.84626,-54.09684
2020-05-30 03:39:01+00:00,315.2497,7.0,12.65,47.84626,-54.09684
2020-05-30 03:49:01+00:00,319.3997,7.0,12.65,47.84626,-54.09684
2020-05-30 03:59:01+00:00,320.7795,7.0,12.65,47.84626,-54.09684
2020-05-30 04:09:01+00:00,322.6946,7.0,12.65,47.84626,-54.09684
2020-05-30 04:19:01+00:00,327.613,7.0,12.65,47.84626,-54.09684
2020-05-30 04:29:01+00:00,329.1647,6.99,12.65,47.84626,-54.09684
2020-05-30 04:39:01+00:00,331.1963,6.9,12.65,47.84626,-54.09684
2020-05-30 04:49:01+00:00,334.838,6.9,12.65,47.84626,-54.09684
2020-05-30 04:59:01+00:00,337.608,6.8,12.65,47.84626,-54.09684
2020-05-30 05:09:01+00:00,338.3981,6.75,12.65,47.84626,-54.09684
2020-05-30 05:19:01+00:00,339.3246,6.72,12.65,47.84626,-54.09684
2020-05-30 05:29:01+00:00,341.2047,6.7,12.65,47.84626,-54.09684
2020-05-30 05:39:01+00:00,342.0246,6.7,12.65,47.84626,-54.09684
2020-05-30 05:49:01+00:00,341.7513,6.7,12.65,47.84626,-54.09684
2020-05-30 05:59:01+00:00,340.1013,6.7,12.65,47.84626,-54.09684
2020-05-30 06:09:01+00:00,339.8079,6.7,12.65,47.84626,-54.09684
2020-05-30 06:19:01+00:00,335.4096,6.7,12.65,47.84626,-54.09684
2020-05-30 06:29:01+00:00,333.1213,6.7,12.65,47.84626,-54.09684
2020-05-30 06:39:01+00:00,329.8579,6.7,12.65,47.84626,-54.09684
2020-05-30 06:49:01+00:00,324.8646,6.7,12.65,47.84626,-54.09684
2020-05-30 06:59:01+00:00,320.798,6.7,12.65,47.84626,-54.09684
2020-05-30 07:09:01+00:00,319.378,6.7,12.65,47.84626,-54.09684
2020-05-30 07:19:01+00:00,312.8647,6.7,12.57,47.84626,-54.09684
2020-05-30 07:29:01+00:00,302.5798,6.7,12.57,47.84626,-54.09684
2020-05-30 07:39:01+00:00,300.0814,6.7,12.57,47.84626,-54.09684
2020-05-30 07:49:01+00:00,299.8013,6.7,12.57,47.84626,-54.09684
2020-05-30 07:59:01+00:00,289.5181,6.72,12.57,47.84626,-54.09684
2020-05-30 08:09:01+00:00,279.7964,6.8,12.57,47.84626,-54.09684
2020-05-30 08:19:01+00:00,277.293,6.8,12.57,47.84626,-54.09684
2020-05-30 08:29:01+00:00,273.7631,6.8,12.57,47.84626,-54.09684
2020-05-30 08:39:01+00:00,262.0647,6.8,12.57,47.84626,-54.09684
2020-05-30 08:49:01+00:00,254.7547,6.8,12.57,47.84626,-54.09684
2020-05-30 08:59:01+00:00,253.0781,6.8,12.57,47.84626,-54.09684
2020-05-30 09:09:01+00:00,244.838,6.8,12.57,47.84626,-54.09684
2020-05-30 09:19:01+00:00,232.7647,6.8,12.57,47.84626,-54.09684
2020-05-30 09:29:01+00:00,229.0164,6.8,12.57,47.84626,-54.09684
2020-05-30 09:39:01+00:00,228.5431,6.78,12.57,47.84626,-54.09684
2020-05-30 09:49:01+00:00,221.1948,6.7,12.57,47.84626,-54.09684
2020-05-30 09:59:01+00:00,213.0131,6.74,12.57,47.84626,-54.09684
2020-05-30 10:09:01+00:00,213.0831,6.76,12.57,47.84626,-54.09684
2020-05-30 10:19:01+00:00,214.6314,6.7,12.65,47.84626,-54.09684
2020-05-30 10:29:01+00:00,211.7115,6.7,12.65,47.84626,-54.09684
2020-05-30 10:39:01+00:00,211.2014,6.7,12.65,47.84626,-54.09684
2020-05-30 10:49:01+00:00,211.6381,6.73,12.65,47.84626,-54.09684
2020-05-30 10:59:01+00:00,211.6798,6.78,12.65,47.84626,-54.09684
2020-05-30 11:09:01+00:00,213.0515,6.79,12.65,47.84626,-54.09684
2020-05-30 11:19:01+00:00,214.4381,6.8,13.05,47.84626,-54.09684
2020-05-30 11:29:01+00:00,214.6514,6.8,13.05,47.84626,-54.09684
2020-05-30 11:39:01+00:00,216.6047,6.82,13.05,47.84626,-54.09684
2020-05-30 11:49:01+00:00,215.6681,6.85,13.05,47.84626,-54.09684
2020-05-30 11:59:01+00:00,214.5065,6.89,13.05,47.84626,-54.09684
2020-05-30 12:09:01+00:00,218.8465,6.9,13.05,47.84626,-54.09684
2020-05-30 12:19:01+00:00,222.1264,6.9,13.53,47.84626,-54.09684
2020-05-30 12:29:01+00:00,220.3164,6.9,13.53,47.84626,-54.09684
2020-05-30 12:39:01+00:00,218.6564,6.92,13.53,47.84626,-54.09684
2020-05-30 12:49:01+00:00,220.7948,6.95,13.53,47.84626,-54.09684
2020-05-30 12:59:01+00:00,225.2981,6.95,13.53,47.84626,-54.09684
2020-05-30 13:09:01+00:00,226.0131,6.95,13.53,47.84626,-54.09684
2020-05-30 13:19:01+00:00,223.9097,6.96,14.0,47.84626,-54.09684
2020-05-30 13:29:01+00:00,227.1064,6.97,14.0,47.84626,-54.09684
2020-05-30 13:39:01+00:00,233.4781,6.9,14.0,47.84626,-54.09684
2020-05-30 13:49:01+00:00,235.9031,6.9,14.0,47.84626,-54.09684
2020-05-30 13:59:01+00:00,237.5765,6.9,14.0,47.84626,-54.09684
2020-05-30 14:09:01+00:00,242.1164,6.9,14.0,47.84626,-54.09684
2020-05-30 14:19:01+00:00,247.3398,6.9,14.16,47.84626,-54.09684
2020-05-30 14:29:01+00:00,251.1915,6.9,14.16,47.84626,-54.09684
2020-05-30 14:39:01+00:00,252.9181,6.9,14.16,47.84626,-54.09684
2020-05-30 14:49:01+00:00,257.9648,6.9,14.16,47.84626,-54.09684
2020-05-30 14:59:01+00:00,265.4914,6.89,14.16,47.84626,-54.09684
2020-05-30 15:09:01+00:00,272.95799999999997,6.87,14.16,47.84626,-54.09684
2020-05-30 15:19:01+00:00,274.2514,6.88,14.24,47.84626,-54.09684
2020-05-30 15:29:01+00:00,281.4981,6.9,14.24,47.84626,-54.09684
2020-05-30 15:39:01+00:00,291.473,6.9,14.24,47.84626,-54.09684
2020-05-30 15:49:01+00:00,295.9681,6.9,14.24,47.84626,-54.09684
2020-05-30 15:59:01+00:00,293.573,6.9,14.24,47.84626,-54.09684
2020-05-30 16:09:01+00:00,301.133,6.9,14.24,47.84626,-54.09684
2020-05-30 16:19:01+00:00,308.6246,6.9,14.32,47.84626,-54.09684
2020-05-30 16:29:01+00:00,310.4697,6.9,14.32,47.84626,-54.09684
2020-05-30 16:39:01+00:00,308.0297,6.9,14.32,47.84626,-54.09684
2020-05-30 16:49:01+00:00,313.2529,6.94,14.32,47.84626,-54.09684
2020-05-30 16:59:01+00:00,318.0263,6.96,14.32,47.84626,-54.09684
2020-05-30 17:09:01+00:00,318.883,6.93,14.32,47.84626,-54.09684
2020-05-30 17:19:01+00:00,316.9846,6.94,14.24,47.84626,-54.09684
2020-05-30 17:29:01+00:00,318.9963,6.96,14.24,47.84626,-54.09684
2020-05-30 17:39:01+00:00,324.1179,6.95,14.24,47.84626,-54.09684
2020-05-30 17:49:01+00:00,326.8913,6.9,14.24,47.84626,-54.09684
2020-05-30 17:59:01+00:00,326.8313,6.9,14.24,47.84626,-54.09684
2020-05-30 18:09:01+00:00,327.728,6.9,14.24,47.84626,-54.09684
2020-05-30 18:19:01+00:00,327.8229,6.9,14.16,47.84626,-54.09684
2020-05-30 18:29:01+00:00,326.8364,6.9,14.16,47.84626,-54.09684
2020-05-30 18:39:01+00:00,323.808,6.9,14.16,47.84626,-54.09684
2020-05-30 18:49:01+00:00,321.5347,6.9,14.16,47.84626,-54.09684
2020-05-30 18:59:01+00:00,321.2513,6.9,14.16,47.84626,-54.09684
2020-05-30 19:09:01+00:00,317.5862,6.9,14.16,47.84626,-54.09684
2020-05-30 19:19:01+00:00,311.3247,6.9,14.0,47.84626,-54.09684
2020-05-30 19:29:01+00:00,305.7947,6.9,14.0,47.84626,-54.09684
2020-05-30 19:39:01+00:00,303.173,6.9,14.0,47.84626,-54.09684
2020-05-30 19:49:01+00:00,299.188,6.92,14.0,47.84626,-54.09684
2020-05-30 19:59:01+00:00,292.8381,6.99,14.0,47.84626,-54.09684
2020-05-30 20:09:01+00:00,288.4447,7.0,14.0,47.84626,-54.09684
2020-05-30 20:19:01+00:00,284.3014,7.0,14.0,47.84626,-54.09684
2020-05-30 20:29:01+00:00,277.5114,7.0,14.0,47.84626,-54.09684
2020-05-30 20:39:01+00:00,266.2697,7.07,14.0,47.84626,-54.09684
2020-05-30 20:49:01+00:00,258.6714,7.1,14.0,47.84626,-54.09684
2020-05-30 20:59:01+00:00,255.9281,7.1,14.0,47.84626,-54.09684
2020-05-30 21:09:01+00:00,252.878,7.1,14.0,47.84626,-54.09684
2020-05-30 21:19:01+00:00,245.4748,7.1,13.76,47.84626,-54.09684
2020-05-30 21:29:01+00:00,241.9781,7.1,13.76,47.84626,-54.09684
2020-05-30 21:39:01+00:00,241.3414,7.1,13.76,47.84626,-54.09684
2020-05-30 21:49:01+00:00,238.5081,7.1,13.76,47.84626,-54.09684
2020-05-30 21:59:01+00:00,234.1847,7.1,13.76,47.84626,-54.09684
2020-05-30 22:09:01+00:00,233.2198,7.17,13.76,47.84626,-54.09684
2020-05-30 22:19:01+00:00,231.6331,7.26,13.37,47.84626,-54.09684
2020-05-30 22:29:01+00:00,228.0014,7.3,13.37,47.84626,-54.09684
2020-05-30 22:39:01+00:00,226.4481,7.38,13.37,47.84626,-54.09684
2020-05-30 22:49:01+00:00,227.2648,7.4,13.37,47.84626,-54.09684
2020-05-30 22:59:01+00:00,225.2031,7.4,13.37,47.84626,-54.09684
2020-05-30 23:09:01+00:00,222.1947,7.4,13.37,47.84626,-54.09684
2020-05-30 23:19:01+00:00,224.7564,7.4,13.05,47.84626,-54.09684
2020-05-30 23:29:01+00:00,226.7365,7.4,13.05,47.84626,-54.09684
2020-05-30 23:39:01+00:00,223.7864,7.4,13.05,47.84626,-54.09684
2020-05-30 23:49:01+00:00,221.3098,7.4,13.05,47.84626,-54.09684
2020-05-30 23:59:01+00:00,225.5198,7.4,13.05,47.84626,-54.09684
